20051111,1683
20051114,1687
20051115,1747
20051116,1782
20051117,1814
20051118,1873
20051121,1940
20051122,1976
20051124,2020
20051125,2077
20051128,2080
20051129,2191
20051130,2262
20051201,2325
20051202,2455
20051205,2511
20051206,2560
20051207,2622
20051208,2672
20051209,2743
20051212,2805
20051213,2866
20051214,2912
20051215,2920
20051216,2922
20051219,2991
20051220,3027
20051221,3077
20051222,3141
20051226,3133
20051227,3176
20051228,3185
20051229,3199
20051230,3316
20060104,3326
20060105,3368
20060106,3355
20060110,3344
20060111,3335
20060112,3353
20060113,3357
20060116,3364
20060117,3401
20060118,3394
20060119,3381
20060120,3412
20060123,3391
20060124,3405
20060125,3426
20060126,3478
20060127,3532
20060130,3576
20060131,3698
20060201,3716
20060202,3777
20060203,3788
20060206,3789
20060207,3778
20060208,3756
20060209,3788
20060210,3839
20060213,3803
20060214,3800
20060215,3841
20060216,3878
20060217,3886
20060220,3904
20060221,3911
20060222,3919
20060223,3975
20060224,3932
20060227,3932
20060228,3948
20060301,3974
20060302,4011
20060303,4026
20060306,4036
20060307,4051
20060308,4019
20060309,4038
20060310,4068
20060313,4116
20060314,4137
20060315,4132
20060316,4146
20060317,4157
20060320,4149
20060322,4179
20060323,4198
20060324,4209
20060327,4201
20060328,4174
20060329,4211
20060330,4238
20060331,4276
20060403,4272
20060404,4324
20060405,4325
20060406,4364
20060407,4293
20060410,4279
20060411,4295
20060412,4263
20060413,4283
20060414,4318
20060417,4326
20060418,4333
20060419,4337
20060420,4416
20060421,4404
20060424,4380
20060425,4332
20060426,4377
20060427,4424
20060428,4469
20060501,4492
20060502,4526
20060508,4498
20060509,4498
20060510,4508
20060511,4499
20060512,4468
20060515,4411
20060516,4400
20060517,4380
20060518,4357
20060519,4365
20060522,4423
20060523,4395
20060524,4430
20060525,4437
20060526,4490
20060529,4548
20060530,4577
20060531,4511
20060601,4554
20060602,4620
20060605,4624
20060606,4606
20060607,4586
20060608,4623
20060609,4582
20060612,4607
20060613,4591
20060614,4551
20060615,4560
20060616,4625
20060619,4651
20060620,4666
20060621,4646
20060622,4669
20060623,4719
20060626,4702
20060627,4730
20060628,4730
20060629,4755
20060630,4807
20060703,4836
20060704,4887
20060705,4917
20060706,4896
20060707,4828
20060710,4785
20060711,4793
20060712,4800
20060713,4834
20060714,4783
20060718,4778
20060719,4797
20060720,4901
20060721,4928
20060724,4904
20060725,4992
20060726,5005
20060727,5050
20060728,5107
20060731,5135
20060801,5107
20060802,5170
20060803,5204
20060804,5235
20060807,5244
20060808,5238
20060809,5267
20060810,5299
20060811,5279
20060814,5295
20060815,5347
20060816,5400
20060817,5442
20060818,5473
20060821,5493
20060822,5544
20060823,5560
20060824,5563
20060825,5578
20060828,5626
20060829,5648
20060830,5669
20060831,5757
20060901,5826
20060904,5853
20060905,5821
20060906,5818
20060907,5803
20060908,5756
20060911,5771
20060912,5888
20060913,5960
20060914,5996
20060915,6035
20060919,6112
20060920,6107
20060921,6165
20060922,6173
20060925,6218
20060926,6283
20060927,6423
20060928,6556
20060929,6655
20061002,6741
20061003,6830
20061004,6882
20061005,6930
20061006,6981
20061010,6862
20061011,6948
20061012,6985
20061013,7044
20061016,7105
20061017,7101
20061018,7064
20061019,7152
20061020,7209
20061023,7269
20061024,7352
20061025,7407
20061026,7455
20061027,7495
20061030,7470
20061031,7508
20061101,7605
20061102,7656
20061106,7678
20061107,7765
20061108,7830
20061109,7850
20061110,7843
20061113,7837
20061114,7889
20061115,7912
20061116,7976
20061117,8056
20061120,8074
20061121,8102
20061122,8138
20061124,8106
20061127,8104
20061128,8107
20061129,8183
20061130,8368
20061201,8406
20061204,8421
20061205,8505
20061206,8540
20061207,8565
20061208,8663
20061211,8749
20061212,8901
20061213,9019
20061214,9118
20061215,9340
20061218,9378
20061219,9435
20061220,9527
20061221,9585
20061222,9634
20061225,9724
20061226,9835
20061227,9847
20061228,9901
20061229,10479
20070104,10761
20070105,10756
20070109,10313
20070110,10453
20070111,10474
20070112,10695
20070115,10812
20070116,10972
20070117,10968
20070118,11090
20070119,11231
20070122,11352
20070123,11518
20070124,11708
20070125,12096
20070126,12234
20070129,12350
20070130,12433
20070131,12679
20070201,12809
20070202,13045
20070205,13131
20070206,13114
20070207,13227
20070208,13458
20070209,13548
20070213,13581
20070214,13693
20070215,13817
20070216,13774
20070219,13804
20070220,13977
20070221,14035
20070222,14359
20070223,14564
20070226,14578
20070227,14714
20070228,14278
20070301,14308
20070302,14150
20070305,13887
20070306,13792
20070307,14107
20070308,14078
20070309,14500
20070312,14700
20070313,14760
20070314,14518
20070315,14564
20070316,14721
20070319,14729
20070320,15129
20070322,15522
20070323,15765
20070326,15890
20070327,15967
20070328,15972
20070329,16048
20070330,16550
20070402,16625
20070403,16789
20070404,17076
20070405,17146
20070406,17276
20070409,16473
20070410,16534
20070411,16689
20070412,16831
20070413,16913
20070416,17259
20070417,17603
20070418,17671
20070419,17726
20070420,17804
20070423,18114
20070424,18082
20070425,18133
20070426,18441
20070427,18726
20070501,18930
20070502,19178
20070507,19547
20070508,19699
20070509,19493
20070510,19674
20070511,19598
20070514,19876
20070515,20094
20070516,20239
20070517,20429
20070518,20553
20070521,20773
20070522,20902
20070523,21091
20070524,21287
20070525,21199
20070528,21487
20070529,21681
20070530,21735
20070531,22233
20070601,22577
20070604,23200
20070605,23297
20070606,23335
20070607,23183
20070608,23301
20070611,23474
20070612,23847
20070613,23794
20070614,24358
20070615,24780
20070618,25273
20070619,25431
20070620,25557
20070621,25782
20070622,25893
20070625,25911
20070626,25886
20070627,25889
20070628,26130
20070629,26511
20070702,26927
20070703,27328
20070704,27641
20070705,28021
20070706,27946
20070709,27021
20070710,27496
20070711,27168
20070712,27571
20070713,28304
20070717,28609
20070718,28864
20070719,28845
20070720,29247
20070723,28989
20070724,29245
20070725,28813
20070726,28959
20070727,28080
20070730,27691
20070731,28180
20070801,28474
20070802,28665
20070803,29472
20070806,28790
20070807,29319
20070808,29806
20070809,30619
20070810,29479
20070813,29114
20070814,29289
20070815,28763
20070816,28282
20070817,27318
20070820,28108
20070821,28538
20070822,28530
20070823,29490
20070824,29776
20070827,30177
20070828,29788
20070829,28775
20070830,29708
20070831,29918
20070903,30256
20070904,30479
20070905,30771
20070906,30208
20070907,30355
20070910,29321
20070911,29412
20070912,30069
20070913,30290
20070914,30704
20070918,30260
20070919,31225
20070920,31862
20070921,31614
20070925,31517
20070926,31441
20070927,31853
20070928,32132
20071001,32176
20071002,32675
20071003,32744
20071004,33031
20071005,33068
20071009,31900
20071010,32285
20071011,32214
20071012,32499
20071015,32616
20071016,32144
20071017,31693
20071018,31906
20071019,31486
20071022,30748
20071023,30683
20071024,31159
20071025,30923
20071026,31408
20071029,31903
20071030,32228
20071031,32360
20071101,32979
20071102,32120
20071105,31974
20071106,31755
20071107,32009
20071108,31194
20071109,30988
20071112,29910
20071113,29685
20071114,30721
20071115,30748
20071116,30153
20071119,30275
20071120,29556
20071121,29852
20071122,28989
20071126,29549
20071127,28860
20071128,29305
20071129,30399
20071130,30519
20071203,31056
20071204,30727
20071205,30448
20071206,31141
20071207,31366
20071210,31463
20071211,31830
20071212,31182
20071213,31597
20071214,31340
20071217,31114
20071218,30490
20071219,30562
20071220,30403
20071221,30392
20071225,31280
20071226,31347
20071227,31469
20071228,31389
20080104,29739
20080107,29174
20080108,29313
20080109,29243
20080110,29329
20080111,29315
20080115,28800
20080116,27735
20080117,27555
20080118,26899
20080121,26498
20080122,25209
20080123,25615
20080124,25654
20080125,26519
20080128,26241
20080129,26441
20080130,26661
20080131,26341
20080201,26594
20080204,27030
20080205,26963
20080206,26007
20080207,25736
20080208,25679
20080212,25393
20080213,26043
20080214,26340
20080215,26165
20080218,25934
20080219,26219
20080220,26115
20080221,25942
20080222,25948
20080225,25926
20080226,26491
20080227,26685
20080228,26520
20080229,25741
20080303,24779
20080304,24571
20080305,24402
20080306,24765
20080307,24134
20080310,23800
20080311,23337
20080312,24202
20080313,24050
20080314,23629
20080317,22566
20080318,21950
20080319,23280
20080321,23122
20080324,23156
20080325,23520
20080326,23891
20080327,23538
20080328,23702
20080331,23667
20080401,23495
20080402,24608
20080403,24999
20080404,24965
20080407,24790
20080408,24998
20080409,24745
20080410,24359
20080411,24387
20080414,23872
20080415,23609
20080416,23821
20080417,24335
20080418,24461
20080421,25121
20080422,24917
20080423,24794
20080424,24860
20080425,25026
20080428,25244
20080430,25090
20080501,25163
20080502,25462
20080507,25576
20080508,25315
20080509,25099
20080512,24765
20080513,25243
20080514,25345
20080515,25501
20080516,25558
20080519,25578
20080520,25666
20080521,25190
20080522,24888
20080523,25198
20080526,24691
20080527,24706
20080528,24778
20080529,25044
20080530,25237
20080602,25202
20080603,24741
20080604,24770
20080605,24677
20080606,25100
20080609,24361
20080610,24424
20080611,24317
20080612,23913
20080613,24054
20080616,24296
20080617,24320
20080618,24234
20080619,23863
20080620,23845
20080623,23429
20080624,23408
20080625,23330
20080626,23626
20080627,22866
20080630,22685
20080701,22756
20080702,22470
20080703,22242
20080704,22355
20080707,22216
20080708,22304
20080709,22386
20080710,22326
20080711,22193
20080714,21837
20080715,21578
20080716,21074
20080717,21491
20080718,22215
20080722,22536
20080723,22679
20080724,23091
20080725,22491
20080728,22558
20080729,22109
20080730,22384
20080731,22591
20080801,22453
20080804,22244
20080805,22263
20080806,22847
20080807,22998
20080808,22810
20080811,23046
20080812,23287
20080813,22855
20080814,22484
20080815,22645
20080818,22805
20080819,22512
20080820,22130
20080821,22147
20080822,21910
20080825,22405
20080826,22037
20080827,22001
20080828,22166
20080829,22468
20080901,22142
20080902,22000
20080903,22192
20080904,21909
20080905,20887
20080908,21001
20080909,21392
20080910,20876
20080911,20785
20080912,20831
20080916,19602
20080917,19875
20080918,18990
20080919,19505
20080922,20790
20080924,19771
20080925,19749
20080926,20095
20080929,20037
20080930,18164
20081001,19107
20081002,19073
20081003,18291
20081006,18081
20081007,16541
20081008,15880
20081009,15022
20081010,14096
20081014,15393
20081015,15506
20081016,14133
20081017,14239
20081020,14514
20081021,15034
20081022,14467
20081023,13227
20081024,13215
20081027,12214
20081028,11803
20081029,13199
20081030,13740
20081031,13852
20081104,14232
20081105,15048
20081106,14174
20081107,13120
20081110,13891
20081111,13474
20081112,13063
20081113,12284
20081114,12868
20081117,12559
20081118,12277
20081119,12356
20081120,11567
20081121,10831
20081125,12313
20081126,12302
20081127,12500
20081128,12657
20081201,12709
20081202,11540
20081203,11829
20081204,12063
20081205,11832
20081208,11819
20081209,12495
20081210,12417
20081211,12483
20081212,12210
20081215,12081
20081216,11959
20081217,12302
20081218,12172
20081219,12278
20081222,12251
20081224,12018
20081225,12045
20081226,12098
20081229,12122
20081230,12176
20090105,13043
20090106,13113
20090107,13257
20090108,12832
20090109,12700
20090113,11907
20090114,11762
20090115,11362
20090116,11341
20090119,11576
20090120,11327
20090121,10787
20090122,10883
20090123,10697
20090126,10635
20090127,11017
20090128,11088
20090129,11634
20090130,11150
20090202,10929
20090203,10836
20090204,11055
20090205,11071
20090206,11263
20090209,11578
20090210,11542
20090212,11031
20090213,10999
20090216,11040
20090217,10963
20090218,10516
20090219,10626
20090220,10595
20090223,10307
20090224,10216
20090225,10695
20090226,10690
20090227,10746
20090302,10388
20090303,9925
20090304,9889
20090305,10280
20090306,9780
20090309,9587
20090310,9603
20090311,10158
20090312,10070
20090313,10405
20090316,10592
20090317,10753
20090318,10917
20090319,10949
20090323,10861
20090324,11576
20090325,11431
20090326,11562
20090327,11795
20090330,11472
20090331,11035
20090401,11353
20090402,11537
20090403,12156
20090406,12281
20090407,12002
20090408,11753
20090409,11809
20090410,12264
20090413,12238
20090414,12316
20090415,12027
20090416,12135
20090417,12364
20090420,12386
20090421,11750
20090422,11956
20090423,11844
20090424,11905
20090427,12071
20090428,11870
20090430,12335
20090501,12597
20090507,13146
20090508,13116
20090511,13343
20090512,12890
20090513,12740
20090514,12343
20090515,12547
20090518,12242
20090519,12765
20090520,12863
20090521,12734
20090522,12539
20090525,12591
20090526,12606
20090527,12868
20090528,12845
20090529,12990
20090601,13021
20090602,13481
20090603,13421
20090604,13225
20090605,13356
20090608,13467
20090609,13407
20090610,13403
20090611,13564
20090612,13711
20090615,13706
20090616,13180
20090617,13029
20090618,12856
20090619,13046
20090622,13080
20090623,12601
20090624,12675
20090625,12865
20090626,13000
20090629,12930
20090630,13197
20090701,13123
20090702,13285
20090703,12815
20090706,12787
20090707,12604
20090708,12331
20090709,12097
20090710,12185
20090713,12047
20090714,12348
20090715,12515
20090716,12948
20090717,12968
20090721,13242
20090722,13200
20090723,13230
20090724,13594
20090727,13659
20090728,13754
20090729,13606
20090730,13647
20090731,13898
20090803,13836
20090804,14104
20090805,14122
20090806,14040
20090807,13977
20090810,14328
20090811,14224
20090812,13954
20090813,14108
20090814,14156
20090817,13849
20090818,13606
20090819,13722
20090820,13754
20090821,13848
20090824,14225
20090825,14152
20090826,14183
20090827,14081
20090828,14128
20090831,13982
20090901,13935
20090902,13600
20090903,13484
20090904,13594
20090907,13745
20090908,13813
20090909,13860
20090910,13983
20090911,13958
20090914,13787
20090915,13921
20090916,13955
20090917,14215
20090918,14242
20090924,14250
20090925,13902
20090928,13536
20090929,13914
20090930,13959
20091001,13848
20091002,13452
20091005,13380
20091006,13474
20091007,13569
20091008,13582
20091009,13775
20091013,13986
20091014,13928
20091015,14203
20091016,14475
20091019,14342
20091020,14471
20091021,14422
20091022,14447
20091023,14511
20091026,14450
20091027,14234
20091028,14099
20091029,13638
20091030,14003
20091102,13496
20091104,13464
20091105,13692
20091106,13844
20091109,13675
20091110,14007
20091111,13941
20091112,14024
20091113,13984
20091116,13904
20091117,14064
20091118,13979
20091119,13953
20091120,13723
20091124,13815
20091125,13740
20091126,13681
20091127,13247
20091130,13307
20091201,13268
20091202,13565
20091203,13813
20091204,13845
20091207,14082
20091208,13916
20091209,13590
20091210,13488
20091211,13637
20091214,13685
20091215,13730
20091216,13797
20091217,13885
20091218,13562
20091221,13727
20091222,13955
20091224,14178
20091225,14194
20091228,14219
20091229,14236
20091230,14304
20100104,14369
20100105,14528
20100106,14449
20100107,14524
20100108,14626
20100112,14601
20100113,14314
20100114,14463
20100115,14504
20100118,14206
20100119,14256
20100120,14351
20100121,14221
20100122,13830
20100125,13562
20100126,13579
20100127,13416
20100128,13485
20100129,13275
20100201,13282
20100202,13494
20100203,13588
20100204,13538
20100205,12995
20100208,12682
20100209,12674
20100210,12885
20100212,12919
20100215,12914
20100216,12911
20100217,13207
20100218,13344
20100219,13413
20100222,13546
20100223,13425
20100224,13104
20100225,13135
20100226,12908
20100301,12943
20100302,13037
20100303,13062
20100304,13079
20100305,13200
20100308,13448
20100309,13431
20100310,13402
20100311,13537
20100312,13606
20100315,13655
20100316,13525
20100317,13687
20100318,13716
20100319,13701
20100323,13595
20100324,13690
20100325,13785
20100326,13905
20100329,13920
20100330,14013
20100331,14137
20100401,14217
20100402,14416
20100405,14497
20100406,14480
20100407,14355
20100408,14236
20100409,14257
20100412,14388
20100413,14368
20100414,14456
20100415,14575
20100416,14484
20100419,14107
20100420,14186
20100421,14367
20100422,14271
20100423,14188
20100426,14464
20100427,14391
20100428,13889
20100430,14172
20100506,13533
20100507,12762
20100510,12700
20100511,13251
20100512,13146
20100513,13333
20100514,13172
20100517,12736
20100518,12735
20100519,12502
20100520,12412
20100521,11902
20100524,11971
20100525,11859
20100526,11731
20100527,11768
20100528,12299
20100531,12246
20100601,12194
20100602,12189
20100603,12431
20100604,12598
20100607,11876
20100608,11853
20100609,11820
20100610,11884
20100611,12215
20100614,12292
20100615,12356
20100616,12569
20100617,12510
20100618,12491
20100621,12516
20100622,12529
20100623,12309
20100624,12174
20100625,11963
20100628,11910
20100629,11911
20100630,11435
20100701,11345
20100702,11255
20100705,11257
20100706,11164
20100707,11338
20100708,11616
20100709,11800
20100712,11889
20100713,11865
20100714,12092
20100715,11953
20100716,11841
20100720,11525
20100721,11567
20100722,11420
20100723,11748
20100726,11889
20100727,11914
20100728,12055
20100729,11938
20100730,11830
20100802,11815
20100803,12036
20100804,11877
20100805,11965
20100806,11874
20100809,11728
20100810,11849
20100811,11649
20100812,11285
20100813,11349
20100816,11271
20100817,11208
20100818,11400
20100819,11412
20100820,11220
20100823,11140
20100824,11071
20100825,10817
20100826,10829
20100827,10803
20100830,11111
20100831,10853
20100901,10820
20100902,11131
20100903,11174
20100906,11320
20100907,11232
20100908,11062
20100909,11133
20100910,11252
20100913,11334
20100914,11331
20100915,11550
20100916,11667
20100917,11631
20100921,11752
20100922,11660
20100924,11443
20100927,11602
20100928,11562
20100929,11581
20100930,11532
20101001,11468
20101004,11519
20101005,11467
20101006,11602
20101007,11428
20101008,11367
20101012,11338
20101013,11271
20101014,11397
20101015,11338
20101018,11257
20101019,11300
20101020,11129
20101021,11202
20101022,11217
20101025,11207
20101026,11178
20101027,11201
20101028,11171
20101029,11156
20101101,11085
20101102,11115
20101104,11327
20101105,11537
20101108,11487
20101109,11401
20101110,11446
20101111,11461
20101112,11403
20101115,11352
20101116,11412
20101117,11231
20101118,11255
20101119,11458
20101122,11457
20101124,11072
20101125,11148
20101126,11187
20101129,11126
20101130,11042
20101201,10880
20101202,11178
20101203,11315
20101206,11208
20101207,11080
20101208,11255
20101209,11329
20101210,11328
20101213,11367
20101214,11411
20101215,11447
20101216,11404
20101217,11416
20101220,11354
20101221,11333
20101222,11401
20101224,11343
20101227,11286
20101228,11271
20101229,11201
20101230,11148
20110104,11228
20110105,11289
20110106,11430
20110107,11333
20110111,11155
20110112,11263
20110113,11379
20110114,11357
20110117,11407
20110118,11342
20110119,11409
20110120,11240
20110121,11287
20110124,11307
20110125,11358
20110126,11254
20110127,11291
20110128,11380
20110131,11156
20110201,11178
20110202,11306
20110203,11289
20110204,11235
20110207,11252
20110208,11316
20110209,11347
20110210,11350
20110214,11444
20110215,11444
20110216,11490
20110217,11575
20110218,11581
20110221,11551
20110222,11406
20110223,11277
20110224,11123
20110225,11050
20110228,11102
20110301,11247
20110302,11089
20110303,11075
20110304,11257
20110307,11163
20110308,11066
20110309,11154
20110310,11135
20110311,10963
20110314,10815
20110315,10651
20110316,10417
20110317,10026
20110318,10383
20110322,10619
20110323,10595
20110324,10615
20110325,10714
20110328,10758
20110329,10739
20110330,10885
20110331,11062
20110401,11061
20110404,11249
20110405,11242
20110406,11356
20110407,11383
20110408,11345
20110411,11368
20110412,11239
20110413,11093
20110414,11077
20110415,11046
20110418,10982
20110419,10744
20110420,10808
20110421,10920
20110422,10894
20110425,10932
20110426,10851
20110427,10937
20110428,11107
20110502,11099
20110506,10736
20110509,10745
20110510,10681
20110511,10850
20110512,10784
20110513,10731
20110516,10586
20110517,10546
20110518,10599
20110519,10673
20110520,10736
20110523,10639
20110524,10445
20110525,10466
20110526,10465
20110527,10403
20110530,10451
20110531,10477
20110601,10647
20110602,10426
20110603,10352
20110606,10233
20110607,10100
20110608,10120
20110609,10009
20110610,10074
20110613,9910
20110614,9899
20110615,10041
20110616,9860
20110617,9797
20110620,9771
20110621,9785
20110622,9906
20110623,9843
20110624,9737
20110627,9660
20110628,9712
20110629,9834
20110630,9950
20110701,10045
20110704,10146
20110705,10164
20110706,10158
20110707,10045
20110708,10181
20110711,9974
20110712,9692
20110713,9534
20110714,9523
20110715,9436
20110719,9298
20110720,9468
20110721,9479
20110722,9615
20110725,9569
20110726,9533
20110727,9478
20110728,9318
20110729,9233
20110801,9199
20110802,9067
20110803,8843
20110804,8980
20110805,8627
20110808,8419
20110809,7930
20110810,8116
20110811,7825
20110812,8027
20110815,8160
20110816,8296
20110817,8237
20110818,8272
20110819,7943
20110822,7834
20110823,7871
20110824,8033
20110825,8119
20110826,8064
20110829,8023
20110830,8206
20110831,8218
20110901,8328
20110902,8284
20110905,8054
20110906,7904
20110907,7838
20110908,8015
20110909,7986
20110912,7744
20110913,7645
20110914,7678
20110915,7739
20110916,7901
20110920,7771
20110921,7781
20110922,7597
20110926,7289
20110927,7396
20110928,7610
20110929,7489
20110930,7551
20111003,7435
20111004,7209
20111005,7209
20111006,7387
20111007,7492
20111011,7721
20111012,7708
20111013,7896
20111014,7789
20111017,7968
20111018,7794
20111019,7820
20111020,7799
20111021,7765
20111024,7865
20111025,7942
20111026,7828
20111027,7907
20111028,8188
20111031,8325
20111101,8147
20111102,7850
20111104,8065
20111107,7969
20111108,7954
20111109,8009
20111110,7757
20111111,7757
20111114,7916
20111115,7802
20111116,7751
20111117,7679
20111118,7567
20111121,7536
20111122,7369
20111124,7163
20111125,7154
20111128,7195
20111129,7446
20111130,7494
20111201,7739
20111202,7762
20111205,7812
20111206,7803
20111207,7741
20111208,7723
20111209,7593
20111212,7681
20111213,7566
20111214,7527
20111215,7413
20111216,7453
20111219,7432
20111220,7397
20111221,7553
20111222,7557
20111226,7659
20111227,7667
20111228,7657
20111229,7561
20111230,7606
20120104,7690
20120105,7667
20120106,7639
20120110,7537
20120111,7621
20120112,7596
20120113,7626
20120116,7560
20120117,7583
20120118,7626
20120119,7675
20120120,7762
20120123,7722
20120124,7762
20120125,7809
20120126,7819
20120127,7808
20120130,7715
20120131,7619
20120201,7585
20120202,7697
20120203,7707
20120206,7844
20120207,7815
20120208,7857
20120209,7869
20120210,7919
20120213,7847
20120214,7846
20120215,7886
20120216,7849
20120217,7958
20120220,8074
20120221,8107
20120222,8119
20120223,8119
20120224,8128
20120227,8283
20120228,8155
20120229,8230
20120301,8229
20120302,8301
20120305,8261
20120306,8225
20120307,7948
20120308,8061
20120309,8200
20120312,8243
20120313,8242
20120314,8414
20120315,8476
20120316,8479
20120319,8518
20120321,8474
20120322,8413
20120323,8275
20120326,8295
20120327,8423
20120328,8393
20120329,8299
20120330,8201
20120402,8328
20120403,8267
20120404,8267
20120405,8097
20120406,8077
20120409,7972
20120410,7974
20120411,7731
20120412,7794
20120413,7913
20120416,7773
20120417,7771
20120418,7929
20120419,7911
20120420,7914
20120423,7945
20120424,7798
20120425,7887
20120426,7940
20120427,7956
20120501,7852
20120502,7917
20120507,7638
20120508,7667
20120509,7583
20120510,7510
20120511,7554
20120514,7547
20120515,7426
20120516,7393
20120517,7359
20120518,7170
20120521,7091
20120522,7146
20120523,7210
20120524,7081
20120525,7118
20120528,7098
20120529,7103
20120530,7139
20120531,6969
20120601,6915
20120604,6748
20120605,6773
20120606,6817
20120607,7003
20120608,7050
20120611,7083
20120612,6981
20120613,7068
20120614,7013
20120615,7039
20120618,7104
20120619,7064
20120620,7154
20120621,7210
20120622,7133
20120625,7159
20120626,6980
20120627,6984
20120628,7072
20120629,7024
20120702,7254
20120703,7275
20120704,7338
20120705,7333
20120706,7285
20120709,7146
20120710,7129
20120711,7101